CDT,Max TemperatureF,Mean TemperatureF,Min TemperatureF,Max Dew PointF,MeanDew PointF,Min DewpointF,Max Humidity, Mean Humidity, Min Humidity, Max Sea Level PressureIn, Mean Sea Level PressureIn, Min Sea Level PressureIn, Max VisibilityMiles, Mean VisibilityMiles, Min VisibilityMiles, Max Wind SpeedMPH, Mean Wind SpeedMPH, Max Gust SpeedMPH,PrecipitationIn, CloudCover, Events, WindDirDegrees
2013-3-1,28,19,6,14,11,1,79,67,51,30.38,30.34,30.25,10,10,10,9,4,,0.00,4,,37
2013-3-2,26,10,-5,12,5,-9,85,67,46,30.36,30.28,30.16,10,10,10,4,0,,0.00,2,,180
2013-3-3,32,19,6,9,4,1,85,51,27,30.16,30.07,30.01,10,10,10,10,3,,0.00,6,,114
2013-3-4,28,24,21,21,14,3,86,65,43,30.06,30.01,29.98,10,8,1,16,7,22,0.04,8,Snow,105
2013-3-5,30,24,17,23,21,12,93,84,69,30.31,30.13,30.01,10,4,0,8,5,,0.37,8,Snow,49
2013-3-6,28,14,0,16,8,-6,93,75,51,30.42,30.36,30.31,10,10,10,14,3,18,0.00,2,Snow,320
2013-3-7,32,12,-7,18,4,-13,86,69,48,30.39,30.35,30.30,10,10,10,8,1,,0.00,0,,117
2013-3-8,35,20,6,25,17,3,93,75,60,30.32,30.25,30.10,10,8,5,7,2,,0.00,0,,132
2013-3-9,33,30,26,32,30,23,100,93,80,30.09,29.86,29.72,10,3,1,7,4,,0.43,8,Rain-Snow,110
2013-3-10,32,29,26,32,25,19,100,78,69,30.02,29.94,29.82,10,10,10,13,8,23,0.00,8,,8
2013-3-11,32,28,23,21,20,18,86,74,64,29.92,29.82,29.75,10,10,10,13,7,16,0.00,8,Snow,339
2013-3-12,30,22,14,18,12,5,93,66,47,30.18,29.95,29.81,10,10,10,21,8,29,0.00,6,Snow,322
2013-3-13,32,21,10,16,11,5,86,64,41,30.35,30.28,30.18,10,10,10,10,6,,0.00,0,,273
2013-3-14,35,28,21,27,21,14,93,78,65,30.23,30.11,30.00,10,8,1,8,3,,0.03,4,Snow,174
2013-3-15,32,26,19,30,23,12,93,79,51,29.99,29.95,29.90,10,5,0,10,4,17,0.13,7,Snow,40
2013-3-16,26,17,6,16,7,-4,86,64,43,30.24,30.10,29.96,10,9,1,13,6,18,0.01,2,Snow,339
2013-3-17,24,8,-9,10,-1,-17,78,59,43,30.27,30.12,29.88,10,10,10,12,4,18,0.00,4,,118
2013-3-18,26,19,12,23,14,3,93,74,63,29.86,29.65,29.56,10,8,0,18,11,29,0.04,7,Snow,216
2013-3-19,26,17,8,3,0,-6,73,53,36,30.14,29.96,29.74,10,9,0,20,14,26,0.00,0,Snow,302
2013-3-20,23,14,5,5,-1,-8,62,53,43,30.16,30.12,30.07,10,8,0,22,12,30,0.00,2,Snow,316
2013-3-21,28,12,-4,9,2,-9,85,62,40,30.12,30.08,30.03,10,10,10,8,2,,0.00,0,,326
2013-3-22,33,14,-4,14,5,-8,85,63,38,30.09,30.06,30.03,10,10,10,7,1,,0.00,0,,237
2013-3-23,37,24,10,19,14,5,86,63,41,30.16,30.11,30.07,10,10,10,8,1,,0.00,2,,263
2013-3-24,33,30,26,21,19,18,74,65,56,30.10,30.06,30.02,10,10,10,12,4,22,0.00,7,,56
2013-3-25,35,26,17,23,16,10,74,60,44,30.21,30.13,30.07,10,10,10,16,6,25,0.00,2,,340
2013-3-26,39,32,26,21,19,16,74,58,44,30.28,30.25,30.21,10,10,10,12,7,,0.00,8,,327
2013-3-27,41,32,21,23,18,14,86,56,33,30.34,30.31,30.29,10,10,10,6,1,,0.00,4,,241
2013-3-28,42,28,14,21,16,10,93,64,36,30.35,30.32,30.28,10,10,10,5,1,,0.00,0,,163
2013-3-29,46,32,19,32,25,16,93,71,50,30.29,30.21,30.07,10,10,5,9,2,,0.01,4,Rain,159
2013-3-30,50,42,35,36,33,30,93,77,47,30.06,29.89,29.83,10,7,1,13,5,17,0.53,4,Rain,281
2013-3-31,35,29,21,30,20,10,93,65,41,30.08,29.88,29.77,10,9,3,28,11,37,0.00,3,Snow,310